Regional Weather Roundup
Issued by NWS Mobile, AL

Home | Current Version | Previous Version | Text Only | Print | Product List | Glossary On
Versions: 1 2 3 4 5 6 7 8 9 10 11 12 13 14 15 16 17 18 19 20 21 22 23 24 25 26 27 28 29 30 31 32 33 34 35 36 37 38 39 40 41 42 43 44 45 46 47 48 49 50
000
ASUS44 KMOB 300312
RWRMOB
REGIONAL WEATHER ROUNDUP
NATIONAL WEATHER SERVICE MOBILE AL
1000 PM CDT MON MAY 29 2017

NOTE: "FAIR" INDICATES FEW OR NO CLOUDS BELOW 12,000 FEET WITH NO
      SIGNIFICANT WEATHER AND/OR OBSTRUCTIONS TO VISIBILITY.

  * THESE STATIONS ARE PART OF THE UNIVERSITY OF SOUTH ALABAMA
    MESONET AND ARE NOT UNDER NWS OR FAA QUALITY CONTROL.

ALZ061>064-300400-
COASTAL ALABAMA

CITY           SKY/WX    TMP DP  RH WIND       PRES   REMARKS
MOBILE REG APT MOCLDY    75  69  81 CALM      30.08R
BROOKLEY FIELD CLOUDY    77  72  84 CALM      30.08R
USA CAMPUS*      N/A     73  68  83 CALM      30.07R
DOG RIVER*       N/A     75  72  88 CALM      30.84R


CITY           SKY/WX    TMP DP  RH WIND       PRES   REMARKS
GULF SHORES    CLOUDY    76  76 100 SW6       30.07R

$$

ALZ051>060-300400-
INTERIOR SOUTHWEST AND SOUTH CENTRAL ALABAMA

CITY           SKY/WX    TMP DP  RH WIND       PRES   REMARKS
GREENVILLE     CLOUDY    75  69  81 CALM      30.06R
EVERGREEN      CLOUDY    75  71  87 CALM      30.07R
ATMORE*          N/A     77  72  83 SW3       30.08R
ANDALUSIA/OPP  PTCLDY    80  72  76 SW3       30.06R
ANDALUSIA*       N/A     77  73  88 W3        30.07R
FLORALA APT    CLOUDY    77  73  87 S7        30.08R
FLORALA*         N/A     75  73  94 CALM      30.79R

$$

FLZ001>006-300400-
WESTERN FLORIDA PANHANDLE

CITY           SKY/WX    TMP DP  RH WIND       PRES   REMARKS
PENSACOLA      CLOUDY    79  73  82 SW6       30.07R
NAS PENSACOLA  MOCLDY    77  73  87 SW5       30.06R
MILTON         MOCLDY    76  73  91 SW6       30.07R
WHTNG S FIELD  MOCLDY    79  74  84 CALM      30.07R


CITY           SKY/WX    TMP DP  RH WIND       PRES   REMARKS
JAY*             N/A     77  68  73 SW6       30.07R
DUKE FIELD     CLOUDY    76  74  92 S7        30.06R
CRESTVIEW      CLOUDY    77  73  87 CALM      30.08R
VALPARAISO     CLEAR     78  74  87 SW6       30.06R
DESTIN         CLOUDY    82  82 100 SW5       30.07R HX  96

$$

MSZ076-079-300400-
INTERIOR SOUTHEAST MISSISSIPPI

CITY           SKY/WX    TMP DP  RH WIND       PRES   REMARKS
LEAKESVILLE*   NOT AVBL
AGRICOLA*        N/A     75  70  83 CALM      30.08R

$$

MARINE OBSERVATIONS

STATION/POSITION TIME  TEMP    WIND        PRES    WAVE
                       AIR SEA DIR/SP/G            HT/PER
                 (UTC) (F)     (DEG/KT/KT) (MB)    (FT/S)
PASCAGOULA       0248   80     220/  5/  6 1018.1R
PETIT BOIS ISLND 0248   80     200/  6/  7 1018.9R
GRAND BAY        0130   81     200/  6     1018.0S
KATRINA CUT      0200   81     220/  7     1017.6
CEDAR POINT      0230   80     210/  7     1018.0R
E DAUPHIN ISLAND 0200   80     210/  5/  7 1017.2R
MIDDLE BAY LIGHT 0200   81     210/  9     1017.6
USCG MOBILE BAY  0248   78 79  210/  2/  3 1018.6R
STATE DOCKS      0242   79 78              1017.9R
MEAHER PARK      0230   80     210/  6     1017.6R
FORT MORGAN      0248   80     190/  6/  7   N/A
12 S ORANGE BCH  0250   80 81  230/  4/  6 1017.9R   3/ 6
PENSACOLA BAY    0242   80 81              1018.3R
64 S DAUPHIN ISL 0240   80 79  180/  8/  8 1018.0R
67 S FORT MORGAN 0230   78     190/ 12     1018.0R

$$

SELECTED LOCATIONS ACROSS THE REGION

CITY           SKY/WX    TMP DP  RH WIND       PRES   REMARKS
NEW ORLEANS    CLOUDY    72  70  93 E5        30.04R
GULFPORT       TSTM      70  69  97 W9        30.14R FOG
PASCAGOULA AP  CLOUDY    74  71  91 CALM      30.07R
PASCAGOULA*    NOT AVBL
HATTIESBURG    LGT RAIN  76  68  76 SW6       30.08R
LAUREL         CLOUDY    73  66  78 SW3       30.10R
MERIDIAN       MOCLDY    73  71  93 SW3       30.06R
JACKSON        MOCLDY    72  69  90 SE5       30.06R
MONTGOMERY     CLOUDY    77  68  73 SW3       30.05R
TROY           CLOUDY    74  71  91 CALM      30.07R
ASHFORD*         N/A     77  73  88 W3        30.07R
DOTHAN         PTCLDY    78  74  87 SW9       30.10R
PANAMA CITY    PTCLDY    78  75  90 S6        30.07R

$$




USA.gov is the U.S. government's official web portal to all federal, state and local government web resources and services.